FW9567 Weather Reports


time (UTC)temp
C
wind
direction
speed
KPH
gust
KPH
rain 1hr
cm
rain 24hr
cm
rain mn
cm
humidity
%
barometer
mb
20260508154540 18 343 4.8 8.0 0.00 0.00 0.00 52 1013.7
20260508154037 17 25 1.6 1.6 0.00 0.00 0.00 54 1014.1
20260508153534 17 146 3.2 3.2 0.00 0.00 0.00 53 1014.0
20260508153030 17 16 1.6 1.6 0.00 0.00 0.00 55 1014.0
20260508152527 17 39 1.6 1.6 0.00 0.00 0.00 55 1014.0
20260508152023 16 254 6.4 11.3 0.00 0.00 0.00 54 1014.1
20260508151520 16 294 4.8 4.8 0.00 0.00 0.00 54 1014.1
20260508151016 16 241 3.2 3.2 0.00 0.00 0.00 54 1014.2
20260508150514 16 61 1.6 1.6 0.00 0.00 0.00 55 1014.4
20260508150009 16 12 1.6 3.2 0.00 0.00 0.00 56 1014.3
20260508145506 16 170 1.6 3.2 0.00 0.00 0.00 56 1014.4
20260508145002 15 12 1.6 3.2 0.00 0.00 0.00 56 1014.5
20260508144500 15 44 1.6 1.6 0.00 0.00 0.00 57 1014.6
20260508143957 15 195 6.4 9.7 0.00 0.00 0.00 55 1014.7
20260508143455 15 189 3.2 4.8 0.00 0.00 0.00 58 1014.4
20260508142951 15 37 1.6 3.2 0.00 0.00 0.00 58 1014.5
20260508142448 15 211 3.2 3.2 0.00 0.00 0.00 56 1014.4
20260508141944 15 210 3.2 4.8 0.00 0.00 0.00 55 1014.4
20260508141441 15 208 1.6 1.6 0.00 0.00 0.00 55 1014.5
20260508140939 15 165 4.8 9.7 0.00 0.00 0.00 56 1014.4
20260508140436 15 238 1.6 3.2 0.00 0.00 0.00 57 1014.5
20260508135931 15 77 3.2 4.8 0.00 0.00 0.00 56 1014.5
20260508135428 14 321 4.8 4.8 0.00 0.00 0.00 57 1014.4
20260508134925 14 208 1.6 1.6 0.00 0.00 0.00 59 1014.4
20260508134421 14 203 4.8 4.8 0.00 0.00 0.00 58 1014.6
20260508133918 15 356 3.2 3.2 0.00 0.00 0.00 56 1014.5
20260508133416 15 179 3.2 4.8 0.00 0.00 0.00 56 1014.6
20260508132912 15 229 1.6 3.2 0.00 0.00 0.00 58 1014.7
20260508132410 15 212 4.8 9.7 0.00 0.00 0.00 58 1014.5
20260508131907 15 266 3.2 4.8 0.00 0.00 0.00 59 1014.5
20260508131402 14 197 1.6 3.2 0.00 0.00 0.00 60 1014.7
20260508130859 14 21 1.6 3.2 0.00 0.00 0.00 60 1014.4
20260508130356 14 279 1.6 1.6 0.00 0.00 0.00 61 1014.6
20260508125852 13 66 1.6 1.6 0.00 0.00 0.00 64 1014.6
20260508125348 12 171 1.6 1.6 0.00 0.00 0.00 64 1014.4
20260508124846 12 80 1.6 1.6 0.00 0.00 0.00 66 1014.6
20260508124343 11 118 1.6 1.6 0.00 0.00 0.00 66 1014.4
20260508123841 11 208 1.6 1.6 0.00 0.00 0.00 68 1014.3
20260508123340 11 51 0.0 0.0 0.00 0.00 0.00 70 1014.5
20260508122836 11 159 3.2 3.2 0.00 0.00 0.00 69 1014.8
20260508122332 11 214 3.2 3.2 0.00 0.00 0.00 69 1014.6
20260508121830 11 120 4.8 8.0 0.00 0.00 0.00 69 1014.4
20260508121328 10 316 4.8 4.8 0.00 0.00 0.00 69 1014.5
20260508120826 10 45 0.0 0.0 0.00 0.00 0.00 72 1014.5
20260508120323 10 351 0.0 0.0 0.00 0.00 0.00 72 1014.3
20260508115820 10 124 1.6 1.6 0.00 0.00 0.00 72 1014.5
20260508115318 9 167 1.6 1.6 0.00 0.00 0.00 74 1014.5
20260508114814 8 20 0.0 1.6 0.00 0.00 0.00 75 1014.4
20260508114311 8 172 1.6 1.6 0.00 0.00 0.00 75 1014.4
20260508113808 8 31 0.0 1.6 0.00 0.00 0.00 77 1014.4
20260508113306 7 55 0.0 0.0 0.00 0.00 0.00 79 1014.4
20260508112802 7 32 0.0 0.0 0.00 0.00 0.00 82 1014.2
20260508112259 6 34 0.0 0.0 0.00 0.00 0.00 84 1014.1
20260508111755 6 26 0.0 0.0 0.00 0.00 0.00 86 1014.5
20260508111254 5 357 0.0 0.0 0.00 0.00 0.00 88 1014.2
20260508110750 5 20 0.0 0.0 0.00 0.00 0.00 89 1014.1
20260508110248 5 21 0.0 0.0 0.00 0.00 0.00 89 1013.9
20260508105747 5 30 0.0 0.0 0.00 0.00 0.00 90 1014.1
20260508105244 5 14 0.0 0.0 0.00 0.00 0.00 90 1014.0
20260508104742 5 33 0.0 0.0 0.00 0.00 0.00 91 1013.9
20260508104238 5 93 0.0 0.0 0.00 0.00 0.00 92 1014.1
20260508103736 5 19 0.0 0.0 0.00 0.00 0.00 93 1014.0
20260508103232 4 24 0.0 0.0 0.00 0.00 0.00 93 1013.9
20260508102730 4 11 0.0 0.0 0.00 0.00 0.00 93 1013.8
20260508102228 4 9 0.0 0.0 0.00 0.00 0.00 94 1013.8
20260508101725 4 15 0.0 0.0 0.00 0.00 0.00 94 1013.7
20260508101222 4 12 0.0 0.0 0.00 0.00 0.00 94 1013.7
20260508100720 4 14 0.0 0.0 0.00 0.00 0.00 93 1013.6
20260508100218 4 15 0.0 0.0 0.00 0.00 0.00 93 1013.7
20260508095713 4 5 0.0 0.0 0.00 0.00 0.00 94 1013.6
20260508095212 4 13 0.0 0.0 0.00 0.00 0.00 94 1013.7
20260508094708 4 13 0.0 0.0 0.00 0.00 0.00 94 1013.7
20260508094205 4 18 0.0 0.0 0.00 0.00 0.00 94 1013.7
20260508093702 4 11 0.0 0.0 0.00 0.00 0.00 95 1013.7
20260508093200 4 6 0.0 0.0 0.00 0.00 0.00 95 1013.9
20260508092656 4 24 0.0 0.0 0.00 0.00 0.00 95 1013.8
20260508092155 4 29 0.0 0.0 0.00 0.00 0.00 95 1013.9
20260508091652 4 29 0.0 0.0 0.00 0.00 0.00 95 1013.8
20260508091149 4 29 0.0 0.0 0.00 0.00 0.00 95 1013.9
20260508090647 4 29 0.0 0.0 0.00 0.00 0.00 95 1014.0
20260508090144 4 29 0.0 0.0 0.00 0.00 0.00 94 1013.8
20260508085639 4 29 0.0 0.0 0.00 0.00 0.00 94 1013.9
20260508085137 4 29 0.0 0.0 0.00 0.00 0.00 93 1013.8
20260508084633 4 22 0.0 0.0 0.00 0.00 0.00 93 1013.8
20260508084131 5 22 0.0 0.0 0.00 0.00 0.00 92 1013.8
20260508083628 5 21 0.0 0.0 0.00 0.00 0.00 92 1013.8
20260508083125 5 20 0.0 0.0 0.00 0.00 0.00 91 1013.9
20260508082620 5 40 0.0 0.0 0.00 0.00 0.00 90 1013.7
20260508082119 5 30 0.0 0.0 0.00 0.00 0.00 89 1013.9
20260508081616 5 30 0.0 0.0 0.00 0.00 0.00 89 1013.7
20260508081112 6 30 0.0 0.0 0.00 0.00 0.00 88 1013.9
20260508080609 6 32 0.0 1.6 0.00 0.00 0.00 88 1013.7
20260508080108 6 19 0.0 0.0 0.00 0.00 0.00 88 1013.8
20260508075603 6 20 0.0 0.0 0.00 0.00 0.00 86 1013.9
20260508075101 6 33 0.0 0.0 0.00 0.00 0.00 85 1013.9
20260508074558 7 20 0.0 0.0 0.00 0.00 0.00 84 1013.9
20260508074055 7 32 0.0 0.0 0.00 0.00 0.00 83 1013.8
20260508073552 7 45 1.6 1.6 0.00 0.00 0.00 82 1013.9
20260508073050 7 5 0.0 0.0 0.00 0.00 0.00 80 1013.9
20260508072545 8 71 0.0 0.0 0.00 0.00 0.00 79 1014.0
20260508072043 8 5 1.6 1.6 0.00 0.00 0.00 78 1014.0
20260508071541 8 21 1.6 1.6 0.00 0.00 0.00 77 1013.9
20260508071038 8 103 0.0 1.6 0.00 0.00 0.00 76 1014.0
20260508070536 8 29 0.0 0.0 0.00 0.00 0.00 75 1014.3
20260508070034 8 12 0.0 0.0 0.00 0.00 0.00 76 1014.5
20260508065531 8 26 1.6 3.2 0.00 0.00 0.00 75 1014.5
20260508065029 8 15 1.6 1.6 0.00 0.00 0.00 76 1014.3
20260508064527 8 28 0.0 0.0 0.00 0.00 0.00 76 1013.9
20260508064024 8 25 0.0 0.0 0.00 0.00 0.00 76 1014.1
20260508063521 8 29 0.0 0.0 0.00 0.00 0.00 76 1013.9
20260508063019 8 26 0.0 0.0 0.00 0.00 0.00 76 1013.8
20260508062516 8 24 0.0 0.0 0.00 0.00 0.00 75 1014.0
20260508062013 8 17 0.0 0.0 0.00 0.00 0.00 75 1014.1
20260508061511 8 17 0.0 0.0 0.00 0.00 0.00 75 1013.9
20260508061007 8 29 1.6 1.6 0.00 0.00 0.00 75 1013.9
20260508060505 8 10 0.0 0.0 0.00 0.00 0.00 75 1014.0
20260508060001 8 190 1.6 1.6 0.00 0.00 0.00 74 1014.0
20260508055457 8 13 0.0 0.0 0.00 0.00 0.00 75 1014.0
20260508054954 8 144 0.0 1.6 0.00 0.00 0.00 74 1014.3
20260508054451 8 16 0.0 0.0 0.00 0.00 0.00 77 1014.0
20260508053948 7 175 1.6 1.6 0.00 0.00 0.00 78 1013.9
20260508053444 7 17 0.0 0.0 0.00 0.00 0.00 79 1014.2
20260508052943 7 9 0.0 0.0 0.00 0.00 0.00 80 1014.1
20260508052440 7 8 0.0 0.0 0.00 0.00 0.00 80 1014.1
20260508051936 7 8 0.0 0.0 0.00 0.00 0.00 79 1014.1
20260508051432 7 8 0.0 0.0 0.00 0.00 0.00 79 1014.0
20260508050928 7 8 0.0 0.0 0.00 0.00 0.00 78 1014.2
20260508050425 7 8 0.0 0.0 0.00 0.00 0.00 78 1014.3
20260508045921 7 9 0.0 0.0 0.00 0.00 0.00 78 1014.4
20260508045419 7 8 0.0 0.0 0.00 0.00 0.00 79 1014.3
20260508044916 7 9 0.0 0.0 0.00 0.00 0.00 79 1014.5
20260508044413 7 9 0.0 0.0 0.00 0.00 0.00 80 1014.2
20260508043908 7 9 0.0 0.0 0.00 0.00 0.00 81 1014.4
20260508043406 7 9 0.0 0.0 0.00 0.00 0.00 81 1014.1
20260508042902 7 9 0.0 0.0 0.00 0.00 0.00 81 1014.4
20260508042400 7 9 0.0 0.0 0.00 0.00 0.00 80 1014.3
20260508041857 6 8 0.0 0.0 0.00 0.00 0.00 83 1014.4
20260508041353 6 10 0.0 0.0 0.00 0.00 0.00 84 1014.3
20260508040850 6 9 0.0 0.0 0.00 0.00 0.00 86 1014.2
20260508040347 6 8 0.0 0.0 0.00 0.00 0.00 86 1014.4
20260508035845 6 17 0.0 0.0 0.00 0.00 0.00 87 1014.3
20260508035342 6 19 0.0 0.0 0.00 0.00 0.00 86 1014.2
20260508034839 6 8 0.0 0.0 0.00 0.00 0.00 85 1014.3
20260508034336 6 8 0.0 0.0 0.00 0.00 0.00 84 1014.3
20260508033832 6 8 0.0 0.0 0.00 0.00 0.00 85 1014.2
20260508033331 6 5 0.0 0.0 0.00 0.00 0.00 86 1014.0
20260508032828 6 17 0.0 0.0 0.00 0.00 0.00 86 1014.2
20260508032325 6 17 0.0 0.0 0.00 0.00 0.00 86 1014.0
20260508031821 6 17 0.0 0.0 0.00 0.00 0.00 86 1014.1
20260508031318 6 17 0.0 0.0 0.00 0.00 0.00 86 1014.2
20260508030815 6 17 0.0 0.0 0.00 0.00 0.00 85 1014.2
20260508030312 6 17 0.0 0.0 0.00 0.00 0.00 85 1014.2
20260508025808 6 17 0.0 0.0 0.00 0.00 0.00 84 1014.2
20260508025306 6 17 0.0 0.0 0.00 0.00 0.00 84 1014.3
20260508024802 6 17 0.0 0.0 0.00 0.00 0.00 84 1014.2
20260508024259 6 17 0.0 0.0 0.00 0.00 0.00 82 1014.4
20260508023756 6 17 0.0 0.0 0.00 0.00 0.00 82 1014.2
20260508023253 6 17 0.0 0.0 0.00 0.00 0.00 83 1014.2
20260508022749 6 17 0.0 0.0 0.00 0.00 0.00 82 1014.2
20260508022245 6 17 0.0 0.0 0.00 0.00 0.00 81 1014.4
20260508021743 6 17 0.0 0.0 0.00 0.00 0.00 82 1014.2
20260508021238 6 18 0.0 0.0 0.00 0.00 0.00 82 1014.1
20260508020735 6 19 0.0 0.0 0.00 0.00 0.00 82 1014.1
20260508020232 6 19 0.0 0.0 0.00 0.00 0.00 80 1014.2
20260508015729 7 19 0.0 0.0 0.00 0.00 0.00 79 1014.2
20260508015227 7 19 0.0 0.0 0.00 0.00 0.00 78 1014.3
20260508014723 7 19 0.0 0.0 0.00 0.00 0.00 78 1014.3
20260508014220 7 19 0.0 0.0 0.00 0.00 0.00 77 1014.2
20260508013716 7 19 0.0 0.0 0.00 0.00 0.00 76 1014.3
20260508013212 7 19 0.0 0.0 0.00 0.00 0.00 75 1014.4
20260508012710 8 19 0.0 0.0 0.00 0.00 0.00 73 1014.2
20260508012207 8 19 0.0 0.0 0.00 0.00 0.00 71 1014.2
20260508011705 8 19 0.0 0.0 0.00 0.00 0.00 70 1014.1
20260508011202 8 19 0.0 0.0 0.00 0.00 0.00 69 1014.0
20260508010659 8 19 0.0 0.0 0.00 0.00 0.00 68 1014.1
20260508010157 9 19 0.0 0.0 0.00 0.00 0.00 67 1014.0
20260508005654 9 19 0.0 0.0 0.00 0.00 0.00 65 1013.9
20260508005150 10 19 0.0 0.0 0.00 0.00 0.00 62 1013.8
20260508004646 10 19 0.0 0.0 0.00 0.00 0.00 61 1014.0
20260508004142 10 19 0.0 0.0 0.00 0.00 0.00 60 1013.8
20260508003639 11 19 0.0 0.0 0.00 0.00 0.00 58 1013.8
20260508003137 11 19 0.0 0.0 0.00 0.00 0.00 55 1013.9
20260508002632 11 19 0.0 0.0 0.00 0.00 0.00 53 1013.8
20260508002126 12 19 0.0 0.0 0.00 0.00 0.00 52 1013.8
20260508001626 12 19 0.0 0.0 0.00 0.00 0.00 51 1013.8
20260508001122 12 15 0.0 0.0 0.00 0.00 0.00 48 1013.7
20260508000618 12 15 0.0 1.6 0.00 0.00 0.00 47 1013.5
20260508000116 12 21 0.0 0.0 0.00 0.00 0.00 47 1013.8
20260507235613 13 10 0.0 0.0 0.00 0.00 0.00 46 1013.5
20260507235110 13 8 0.0 1.6 0.00 0.00 0.00 44 1013.6
20260507234606 13 38 0.0 1.6 0.00 0.00 0.00 44 1013.6
20260507234103 13 119 1.6 3.2 0.00 0.00 0.00 45 1013.5
20260507233559 13 29 1.6 1.6 0.00 0.00 0.00 44 1013.5
20260507233059 13 46 1.6 1.6 0.00 0.00 0.00 45 1013.5
20260507232554 13 0 1.6 3.2 0.00 0.00 0.00 43 1013.4
20260507232052 13 55 1.6 1.6 0.00 0.00 0.00 44 1013.4
20260507231548 13 337 1.6 1.6 0.00 0.00 0.00 43 1013.5
20260507231045 13 295 4.8 8.0 0.00 0.00 0.00 42 1013.3
20260507230541 13 359 4.8 4.8 0.00 0.00 0.00 43 1013.6
20260507230038 13 4 3.2 3.2 0.00 0.00 0.00 43 1013.4
20260507225533 13 5 1.6 1.6 0.00 0.00 0.00 44 1013.6
20260507225030 13 342 1.6 1.6 0.00 0.00 0.00 43 1013.6
20260507224526 13 336 3.2 3.2 0.00 0.00 0.00 43 1013.6
20260507224022 14 0 1.6 3.2 0.00 0.00 0.00 42 1013.6
20260507223519 14 278 1.6 3.2 0.00 0.00 0.00 42 1013.7
20260507223016 15 335 4.8 4.8 0.00 0.00 0.00 40 1013.6
20260507222513 15 350 1.6 3.2 0.00 0.00 0.00 40 1013.7
20260507222009 15 116 3.2 3.2 0.00 0.00 0.00 41 1013.7
20260507221506 15 355 1.6 3.2 0.00 0.00 0.00 39 1013.7
20260507221002 15 17 1.6 1.6 0.00 0.00 0.00 43 1013.7
20260507220500 15 32 0.0 1.6 0.00 0.00 0.00 41 1013.6
20260507215956 14 349 1.6 3.2 0.00 0.00 0.00 41 1013.7
20260507215453 14 344 3.2 3.2 0.00 0.00 0.00 44 1013.8
20260507214951 15 24 6.4 11.3 0.00 0.00 0.00 41 1013.6
20260507214448 15 19 3.2 3.2 0.00 0.00 0.00 42 1013.5
20260507213943 15 345 3.2 3.2 0.00 0.00 0.00 41 1013.6
20260507213440 15 32 4.8 8.0 0.00 0.00 0.00 39 1013.6
20260507212937 15 2 3.2 3.2 0.00 0.00 0.00 43 1013.4
20260507212432 15 245 4.8 4.8 0.00 0.00 0.00 43 1013.4
20260507211930 15 12 4.8 4.8 0.00 0.00 0.00 40 1013.3
20260507211426 15 229 1.6 1.6 0.00 0.00 0.00 40 1013.4
20260507210923 15 332 4.8 8.0 0.00 0.00 0.00 42 1013.6
20260507210420 15 28 3.2 3.2 0.00 0.00 0.00 46 1013.5
20260507205917 15 1 3.2 4.8 0.00 0.00 0.00 43 1013.5
20260507205414 15 228 4.8 8.0 0.00 0.00 0.00 42 1013.4
20260507204910 15 15 1.6 1.6 0.00 0.00 0.00 41 1013.2
20260507204407 15 334 4.8 9.7 0.00 0.00 0.00 43 1013.3
20260507203904 15 13 3.2 3.2 0.00 0.00 0.00 43 1013.2
20260507203402 15 329 3.2 4.8 0.00 0.00 0.00 43 1013.3
20260507202858 15 323 3.2 4.8 0.00 0.00 0.00 42 1013.1
20260507202355 15 357 3.2 3.2 0.00 0.00 0.00 46 1013.2
20260507201850 15 246 3.2 4.8 0.00 0.00 0.00 44 1013.2
20260507201346 15 260 4.8 8.0 0.00 0.00 0.00 43 1013.3
20260507200842 15 351 1.6 1.6 0.00 0.00 0.00 45 1013.6
20260507200339 15 13 4.8 4.8 0.00 0.00 0.00 45 1013.4
20260507195835 15 52 4.8 9.7 0.00 0.00 0.00 47 1013.4
20260507195332 15 25 3.2 4.8 0.00 0.00 0.00 46 1013.4
20260507194830 15 342 6.4 9.7 0.00 0.00 0.00 44 1013.2
20260507194326 15 94 1.6 1.6 0.00 0.00 0.00 42 1013.4
20260507193822 15 320 1.6 3.2 0.00 0.00 0.00 41 1013.6
20260507193320 15 15 3.2 4.8 0.00 0.00 0.00 42 1013.7
20260507192815 15 351 6.4 9.7 0.00 0.00 0.00 43 1013.6
20260507192312 16 261 4.8 4.8 0.00 0.00 0.00 46 1013.6
20260507191808 15 263 4.8 4.8 0.00 0.00 0.00 45 1013.5
20260507191305 15 312 4.8 4.8 0.00 0.00 0.00 44 1013.5
20260507190802 15 8 8.0 12.9 0.00 0.00 0.00 42 1013.8
20260507190301 15 19 12.9 17.7 0.00 0.00 0.00 45 1013.8
20260507185759 15 10 3.2 4.8 0.00 0.00 0.00 47 1013.7
20260507185255 15 320 4.8 4.8 0.00 0.00 0.00 45 1013.6
20260507184752 15 312 4.8 8.0 0.00 0.00 0.00 45 1013.7
20260507184251 15 15 4.8 8.0 0.00 0.00 0.00 42 1013.7
20260507183747 16 28 3.2 3.2 0.00 0.00 0.00 48 1013.7
20260507183244 15 345 3.2 3.2 0.00 0.00 0.00 49 1013.7
20260507182741 15 348 3.2 4.8 0.00 0.00 0.00 48 1013.8
20260507182236 15 347 3.2 3.2 0.00 0.00 0.00 47 1013.9
20260507181733 15 13 3.2 4.8 0.00 0.00 0.00 48 1013.5
20260507181230 15 48 4.8 8.0 0.00 0.00 0.00 48 1013.8
20260507180726 15 29 4.8 8.0 0.00 0.00 0.00 46 1013.9
20260507180223 14 354 3.2 4.8 0.00 0.00 0.00 48 1013.8
20260507175719 15 17 3.2 4.8 0.00 0.00 0.00 43 1013.8
20260507175216 15 330 1.6 3.2 0.00 0.00 0.00 50 1013.8
20260507174714 15 346 1.6 1.6 0.00 0.00 0.00 47 1013.9
20260507174211 15 1 1.6 1.6 0.00 0.00 0.00 51 1013.8
20260507173708 14 312 1.6 1.6 0.00 0.00 0.00 45 1014.1
20260507173205 14 19 1.6 3.2 0.00 0.00 0.00 48 1013.9
20260507172702 14 296 3.2 3.2 0.00 0.00 0.00 45 1014.1
20260507172159 14 356 4.8 4.8 0.00 0.00 0.00 46 1014.2
20260507171658 15 342 11.3 16.1 0.00 0.00 0.00 44 1014.3
20260507171156 15 14 4.8 8.0 0.00 0.00 0.00 45 1014.3
20260507170653 15 341 3.2 4.8 0.00 0.00 0.00 49 1014.4
20260507170150 15 349 8.0 16.1 0.00 0.00 0.00 45 1014.5
20260507165646 15 158 3.2 4.8 0.00 0.00 0.00 44 1014.4
20260507165142 14 334 3.2 3.2 0.00 0.00 0.00 45 1014.6
20260507164638 14 321 6.4 11.3 0.00 0.00 0.00 47 1014.6
20260507164135 14 110 4.8 4.8 0.00 0.00 0.00 46 1014.4
20260507163632 14 69 3.2 3.2 0.00 0.00 0.00 44 1014.5
20260507163131 15 21 6.4 8.0 0.00 0.00 0.00 46 1014.5
20260507162626 14 218 4.8 8.0 0.00 0.00 0.00 48 1014.6
20260507162122 14 340 4.8 4.8 0.00 0.00 0.00 46 1014.5
20260507161619 13 254 8.0 11.3 0.00 0.00 0.00 48 1014.5
20260507161116 14 48 4.8 4.8 0.00 0.00 0.00 48 1014.8
20260507160612 14 4 4.8 9.7 0.00 0.00 0.00 47 1014.6
20260507160108 14 227 4.8 8.0 0.00 0.00 0.00 47 1014.5
20260507155603 14 8 4.8 4.8 0.00 0.00 0.00 47 1014.4
20260507155101 14 11 1.6 3.2 0.00 0.00 0.00 50 1014.5